Tucson Davis Monthan, AZ

2:19 PM MST on June 27, 2017 (GMT -0700)
Davis-Monthan Air Force Base

Weather History for KDMA - February, 2013

Change the Weather History Date:

Tuesday, February 19, 2013

  Actual Average Record
Temperature  
Mean Temperature 56 °F -  
Max Temperature 68 °F 69 °F 85 °F (1981)
Min Temperature 45 °F 40 °F 25 °F (1955)
Degree Days  
Heating Degree Days 8    
Growing Degree Days 6 (Base 50)    
Moisture  
Dew Point 16 °F    
Average Humidity 22    
Maximum Humidity 35    
Minimum Humidity 10    
Precipitation  
Precipitation 0.00 in - - ()
Sea Level Pressure  
Sea Level Pressure 29.78 in    
Wind  
Wind Speed 10 mph (South)    
Max Wind Speed 22 mph    
Max Gust Speed 30 mph    
Visibility 10 miles    
Events      
Averages and records for this station are not official NWS values.
T = Trace of Precipitation, MM = Missing Value Source: NWS Daily Summary

Daily Weather History Graph

Daily Weather History Graph

Search for Another Location

Airport or City:

Trip Planner

Search our weather history database for the weather conditions in past years. The results will help you decide how hot, cold, wet, or windy it might be!

Date:

Astronomy

Feb. 19, 2013 Rise Set
Actual Time 7:01 AM MST 6:13 PM MST
Civil Twilight 6:36 AM MST 6:38 PM MST
Nautical Twilight 6:08 AM MST 7:06 PM MST
Astronomical Twilight 5:39 AM MST 7:35 PM MST
Moon 12:58 PM MST (2/19) 2:26 AM MST (2/19)
Length of Visible Light 12h 01m
Length of Day
11h 11m
Waxing Gibbous, 68% of the Moon is Illuminated
Feb 19
Waxing Gibbous
Feb 25
Full
Mar 4
Last Quarter
Mar 11
New
Mar 19
First Quarter

Hourly Weather History & Observations

Time (MST) Temp. Windchill Dew Point Humidity Pressure Visibility Wind Dir Wind Speed Gust Speed Precip Events Conditions
12:58 AM 48.6 °F - 18.9 °F 31% 29.89 in 10.0 mi ESE 8.1 mph - N/A   Partly Cloudy
1:58 AM 48.6 °F - 17.8 °F 29% 29.89 in 10.0 mi SE 8.1 mph - N/A   Clear
2:58 AM 47.3 °F - 18.1 °F 31% 29.88 in 10.0 mi ESE 8.1 mph - N/A   Clear
3:58 AM 46.0 °F 41.4 °F 18.7 °F 34% 29.84 in 10.0 mi ESE 9.2 mph - N/A   Partly Cloudy
4:58 AM 46.6 °F - 17.8 °F 32% 29.83 in 10.0 mi East 2.3 mph - N/A   Clear
5:58 AM 45.3 °F 41.1 °F 18.7 °F 35% 29.87 in 10.0 mi South 8.1 mph - N/A   Clear
6:58 AM 45.1 °F 39.9 °F 17.8 °F 34% 29.87 in 10.0 mi SE 10.4 mph - N/A   Partly Cloudy
7:58 AM 48.6 °F - 18.0 °F 30% 29.87 in 10.0 mi ESE 5.8 mph - N/A   Clear
8:58 AM 58.1 °F - 17.1 °F 20% 29.86 in 10.0 mi ENE 6.9 mph - N/A   Clear
9:58 AM 61.7 °F - 15.6 °F 17% 29.85 in 10.0 mi SSE 8.1 mph - N/A   Clear
10:58 AM 63.7 °F - 18.1 °F 17% 29.81 in 10.0 mi South 10.4 mph - N/A   Clear
11:58 AM 67.3 °F - 16.9 °F 14% 29.78 in 10.0 mi SSW 6.9 mph 18.4 mph N/A   Clear
12:55 PM 68.5 °F - 16.2 °F 13% 29.76 in 10.0 mi SW 21.9 mph 28.8 mph N/A   Clear
1:55 PM 68.4 °F - 11.7 °F 11% 29.73 in 10.0 mi SSW 21.9 mph 28.8 mph N/A   Clear
2:55 PM 68.5 °F - 10.2 °F 10% 29.72 in 10.0 mi SW 18.4 mph 29.9 mph N/A   Clear
3:55 PM 68.2 °F - 12.0 °F 11% 29.70 in 10.0 mi SSW 19.6 mph 25.3 mph N/A   Clear
3:58 PM 68.2 °F - 12.0 °F 11% 29.69 in 10.0 mi SSW 18.4 mph 25.3 mph N/A   Clear
5:58 PM 64.9 °F - 7.7 °F 11% 29.68 in 10.0 mi SSW 15.0 mph - N/A   Clear
6:58 PM 60.8 °F - 11.7 °F 15% 29.67 in 10.0 mi SSW 9.2 mph - N/A   Clear
7:55 PM 59.0 °F - 14.5 °F 18% 29.70 in 10.0 mi SSW 8.1 mph - N/A   Clear
8:55 PM 58.6 °F - 13.8 °F 17% 29.67 in 10.0 mi WSW 3.5 mph - N/A   Clear
9:55 PM 56.7 °F - 20.7 °F 25% 29.69 in 10.0 mi West 6.9 mph - N/A   Clear
10:55 PM 55.6 °F - 26.4 °F 33% 29.69 in 10.0 mi WSW 3.5 mph - N/A   Clear